owner,sensor,date,latitude,longitude,vertical_datum,direction_of_sea_water_velocity,sea_water_speed,upward_sea_water_velocity,qcFlag 
ADCP,ioos:station:wmo:42362:1,2013-10-01T00:13:00Z,27.7950,-90.6480,79.1,170.0,8.4,-99999.0,'1111122,1111122,1199999999' 
ADCP,ioos:station:wmo:42362:1,2013-10-01T01:13:00Z,27.7950,-90.6480,79.1,180.0,12.1,-99999.0,'1111122,1111122,1199999999' 
ADCP,ioos:station:wmo:42362:1,2013-10-01T02:13:00Z,27.7950,-90.6480,79.1,183.0,7.0,-99999.0,'1111122,1111122,1199999999' 
ADCP,ioos:station:wmo:42362:1,2013-10-01T02:33:00Z,27.7950,-90.6480,79.1,142.0,8.2,-99999.0,'1111122,1111122,1199999999' 
ADCP,ioos:station:wmo:42362:1,2013-10-01T03:13:00Z,27.7950,-90.6480,79.1,198.0,6.6,-99999.0,'1111122,1111122,1199999999' 
ADCP,ioos:station:wmo:42362:1,2013-10-01T04:13:00Z,27.7950,-90.6480,79.1,180.0,6.3,-99999.0,'1111122,1111122,1199999999' 
ADCP,ioos:station:wmo:42362:1,2013-10-01T04:33:00Z,27.7950,-90.6480,79.1,178.0,6.5,-99999.0,'1111122,1111122,1199999999' 
ADCP,ioos:station:wmo:42362:1,2013-10-01T05:53:00Z,27.7950,-90.6480,79.1,190.0,6.1,-99999.0,'1111122,1111122,1199999999' 
ADCP,ioos:station:wmo:42362:1,2013-10-01T06:33:00Z,27.7950,-90.6480,79.1,170.0,4.8,-99999.0,'1111122,1111122,1199999999' 
ADCP,ioos:station:wmo:42362:1,2013-10-01T07:13:00Z,27.7950,-90.6480,79.1,148.0,5.9,-99999.0,'1111122,1111122,1199999999' 
ADCP,ioos:station:wmo:42362:1,2013-10-01T07:33:00Z,27.7950,-90.6480,79.1,198.0,6.3,-99999.0,'1111122,1111122,1199999999' 
ADCP,ioos:station:wmo:42362:1,2013-10-01T08:13:00Z,27.7950,-90.6480,79.1,156.0,7.0,-99999.0,'1111122,1111122,1199999999' 
ADCP,ioos:station:wmo:42362:1,2013-10-01T09:13:00Z,27.7950,-90.6480,79.1,198.0,7.9,-99999.0,'1111122,1111122,1199999999' 
ADCP,ioos:station:wmo:42362:1,2013-10-01T09:33:00Z,27.7950,-90.6480,79.1,174.0,4.5,-99999.0,'1111122,1111122,1199999999' 
ADCP,ioos:station:wmo:42362:1,2013-10-01T10:33:00Z,27.7950,-90.6480,79.1,205.0,7.7,-99999.0,'1111122,1111122,1199999999' 
ADCP,ioos:station:wmo:42362:1,2013-10-01T10:53:00Z,27.7950,-90.6480,79.1,216.0,10.3,-99999.0,'1111122,1111122,1199999999' 
ADCP,ioos:station:wmo:42362:1,2013-10-01T11:33:00Z,27.7950,-90.6480,79.1,156.0,3.4,-99999.0,'1111122,1111122,1199999999' 
ADCP,ioos:station:wmo:42362:1,2013-10-01T11:53:00Z,27.7950,-90.6480,79.1,172.0,6.0,-99999.0,'1111122,1111122,1199999999' 
ADCP,ioos:station:wmo:42362:1,2013-10-01T12:33:00Z,27.7950,-90.6480,79.1,168.0,4.0,-99999.0,'1111122,1111122,1199999999' 
ADCP,ioos:station:wmo:42362:1,2013-10-01T13:13:00Z,27.7950,-90.6480,79.1,142.0,2.8,-99999.0,'1111122,1111122,1199999999' 
ADCP,ioos:station:wmo:42362:1,2013-10-01T13:53:00Z,27.7950,-90.6480,79.1,356.0,1.3,-99999.0,'1111122,1111122,1199999999' 
ADCP,ioos:station:wmo:42362:1,2013-10-01T14:33:00Z,27.7950,-90.6480,79.1,256.0,3.4,-99999.0,'1111122,1111122,1199999999' 
ADCP,ioos:station:wmo:42362:1,2013-10-01T15:13:00Z,27.7950,-90.6480,79.1,286.0,0.7,-99999.0,'1111122,1111122,1199999999' 
ADCP,ioos:station:wmo:42362:1,2013-10-01T16:13:00Z,27.7950,-90.6480,79.1,246.0,1.0,-99999.0,'1113322,1111122,1199999999' 
ADCP,ioos:station:wmo:42362:1,2013-10-01T16:33:00Z,27.7950,-90.6480,79.1,39.0,4.9,-99999.0,'1111122,1111122,1199999999' 
ADCP,ioos:station:wmo:42362:1,2013-10-01T17:13:00Z,27.7950,-90.6480,79.1,133.0,2.1,-99999.0,'1111122,1111122,1199999999' 
ADCP,ioos:station:wmo:42362:1,2013-10-01T17:33:00Z,27.7950,-90.6480,79.1,117.0,3.3,-99999.0,'1111122,1111122,1199999999' 
ADCP,ioos:station:wmo:42362:1,2013-10-01T17:53:00Z,27.7950,-90.6480,79.1,86.0,4.4,-99999.0,'1111122,1111122,1199999999' 
ADCP,ioos:station:wmo:42362:1,2013-10-01T18:53:00Z,27.7950,-90.6480,79.1,91.0,8.6,-99999.0,'1111122,1111122,1199999999' 
ADCP,ioos:station:wmo:42362:1,2013-10-01T19:33:00Z,27.7950,-90.6480,79.1,87.0,9.3,-99999.0,'1111122,1111122,1199999999' 
ADCP,ioos:station:wmo:42362:1,2013-10-01T20:33:00Z,27.7950,-90.6480,79.1,98.0,10.8,-99999.0,'1111122,1111122,1199999999' 
ADCP,ioos:station:wmo:42362:1,2013-10-01T20:53:00Z,27.7950,-90.6480,79.1,115.0,9.3,-99999.0,'1111122,1111122,1199999999' 
ADCP,ioos:station:wmo:42362:1,2013-10-01T21:13:00Z,27.7950,-90.6480,79.1,97.0,17.4,-99999.0,'1111122,1111122,1199999999' 
ADCP,ioos:station:wmo:42362:1,2013-10-01T21:53:00Z,27.7950,-90.6480,79.1,102.0,13.2,-99999.0,'1111122,1111122,1199999999' 
ADCP,ioos:station:wmo:42362:1,2013-10-01T22:13:00Z,27.7950,-90.6480,79.1,100.0,11.8,-99999.0,'1111122,1111122,1199999999' 
ADCP,ioos:station:wmo:42362:1,2013-10-01T23:13:00Z,27.7950,-90.6480,79.1,103.0,13.3,-99999.0,'1111122,1111122,1199999999' 
ADCP,ioos:station:wmo:42362:1,2013-10-01T23:33:00Z,27.7950,-90.6480,79.1,132.0,8.2,-99999.0,'1111122,1111122,1199999999' 
ADCP,ioos:station:wmo:42362:1,2013-10-02T00:13:00Z,27.7950,-90.6480,79.1,144.0,7.5,-99999.0,'1111122,1111122,1199999999' 
ADCP,ioos:station:wmo:42362:1,2013-10-02T00:33:00Z,27.7950,-90.6480,79.1,148.0,8.0,-99999.0,'1111122,1111122,1199999999' 
ADCP,ioos:station:wmo:42362:1,2013-10-02T01:33:00Z,27.7950,-90.6480,79.1,124.0,16.8,-99999.0,'1111122,1111122,1199999999' 
ADCP,ioos:station:wmo:42362:1,2013-10-02T01:53:00Z,27.7950,-90.6480,79.1,138.0,12.1,-99999.0,'1111122,1111122,1199999999' 
ADCP,ioos:station:wmo:42362:1,2013-10-02T02:33:00Z,27.7950,-90.6480,79.1,148.0,6.7,-99999.0,'1111122,1111122,1199999999' 
ADCP,ioos:station:wmo:42362:1,2013-10-02T02:53:00Z,27.7950,-90.6480,79.1,171.0,8.7,-99999.0,'1111122,1111122,1199999999' 
ADCP,ioos:station:wmo:42362:1,2013-10-02T03:33:00Z,27.7950,-90.6480,79.1,164.0,8.1,-99999.0,'1111122,1111122,1199999999' 
ADCP,ioos:station:wmo:42362:1,2013-10-02T04:13:00Z,27.7950,-90.6480,79.1,180.0,8.0,-99999.0,'1111122,1111122,1199999999' 
ADCP,ioos:station:wmo:42362:1,2013-10-02T04:53:00Z,27.7950,-90.6480,79.1,158.0,8.7,-99999.0,'1111122,1111122,1199999999' 
ADCP,ioos:station:wmo:42362:1,2013-10-02T05:13:00Z,27.7950,-90.6480,79.1,130.0,10.3,-99999.0,'1111122,1111122,1199999999' 
ADCP,ioos:station:wmo:42362:1,2013-10-02T06:33:00Z,27.7950,-90.6480,79.1,157.0,8.8,-99999.0,'1111122,1111122,1199999999' 
ADCP,ioos:station:wmo:42362:1,2013-10-02T06:53:00Z,27.7950,-90.6480,79.1,172.0,10.4,-99999.0,'1111122,1111122,1199999999' 
ADCP,ioos:station:wmo:42362:1,2013-10-02T07:33:00Z,27.7950,-90.6480,79.1,140.0,8.1,-99999.0,'1111122,1111122,1199999999' 
ADCP,ioos:station:wmo:42362:1,2013-10-02T07:53:00Z,27.7950,-90.6480,79.1,144.0,6.1,-99999.0,'1111122,1111122,1199999999' 
ADCP,ioos:station:wmo:42362:1,2013-10-02T08:33:00Z,27.7950,-90.6480,79.1,199.0,6.2,-99999.0,'1111122,1111122,1199999999' 
ADCP,ioos:station:wmo:42362:1,2013-10-02T08:53:00Z,27.7950,-90.6480,79.1,177.0,6.6,-99999.0,'1111122,1111122,1199999999' 
ADCP,ioos:station:wmo:42362:1,2013-10-02T09:53:00Z,27.7950,-90.6480,79.1,159.0,8.8,-99999.0,'1111122,1111122,1199999999' 
ADCP,ioos:station:wmo:42362:1,2013-10-02T10:33:00Z,27.7950,-90.6480,79.1,154.0,6.2,-99999.0,'1111122,1111122,1199999999' 
ADCP,ioos:station:wmo:42362:1,2013-10-02T11:13:00Z,27.7950,-90.6480,79.1,210.0,9.5,-99999.0,'1111122,1111122,1199999999' 
ADCP,ioos:station:wmo:42362:1,2013-10-02T11:33:00Z,27.7950,-90.6480,79.1,158.0,7.3,-99999.0,'1111122,1111122,1199999999' 
ADCP,ioos:station:wmo:42362:1,2013-10-02T12:13:00Z,27.7950,-90.6480,79.1,242.0,5.5,-99999.0,'1111122,1111122,1199999999' 
ADCP,ioos:station:wmo:42362:1,2013-10-02T12:33:00Z,27.7950,-90.6480,79.1,153.0,2.9,-99999.0,'1111122,1111122,1199999999' 
ADCP,ioos:station:wmo:42362:1,2013-10-02T13:13:00Z,27.7950,-90.6480,79.1,141.0,6.3,-99999.0,'1111122,1111122,1199999999' 
ADCP,ioos:station:wmo:42362:1,2013-10-02T13:33:00Z,27.7950,-90.6480,79.1,138.0,4.2,-99999.0,'1111122,1111122,1199999999' 
ADCP,ioos:station:wmo:42362:1,2013-10-02T14:13:00Z,27.7950,-90.6480,79.1,195.0,3.5,-99999.0,'1111122,1111122,1199999999' 
ADCP,ioos:station:wmo:42362:1,2013-10-02T14:33:00Z,27.7950,-90.6480,79.1,151.0,7.1,-99999.0,'1111122,1111122,1199999999' 
ADCP,ioos:station:wmo:42362:1,2013-10-02T15:13:00Z,27.7950,-90.6480,79.1,122.0,4.0,-99999.0,'1111122,1111122,1199999999' 
ADCP,ioos:station:wmo:42362:1,2013-10-02T15:33:00Z,27.7950,-90.6480,79.1,156.0,5.2,-99999.0,'1111122,1111122,1199999999' 
ADCP,ioos:station:wmo:42362:1,2013-10-02T16:33:00Z,27.7950,-90.6480,79.1,156.0,4.9,-99999.0,'1111122,1111122,1199999999' 
ADCP,ioos:station:wmo:42362:1,2013-10-02T17:13:00Z,27.7950,-90.6480,79.1,50.0,0.8,-99999.0,'1111122,1111122,1199999999' 
ADCP,ioos:station:wmo:42362:1,2013-10-02T17:33:00Z,27.7950,-90.6480,79.1,81.0,2.4,-99999.0,'1111122,1111122,1199999999' 
ADCP,ioos:station:wmo:42362:1,2013-10-02T18:13:00Z,27.7950,-90.6480,79.1,31.0,4.1,-99999.0,'1111122,1111122,1199999999' 
ADCP,ioos:station:wmo:42362:1,2013-10-02T18:33:00Z,27.7950,-90.6480,79.1,87.0,5.4,-99999.0,'1111122,1111122,1199999999' 
ADCP,ioos:station:wmo:42362:1,2013-10-02T19:13:00Z,27.7950,-90.6480,79.1,85.0,7.6,-99999.0,'1111122,1111122,1199999999' 
ADCP,ioos:station:wmo:42362:1,2013-10-02T19:53:00Z,27.7950,-90.6480,79.1,100.0,6.6,-99999.0,'1111122,1111122,1199999999' 
ADCP,ioos:station:wmo:42362:1,2013-10-02T20:33:00Z,27.7950,-90.6480,79.1,101.0,14.9,-99999.0,'1111122,1111122,1199999999' 
ADCP,ioos:station:wmo:42362:1,2013-10-02T21:33:00Z,27.7950,-90.6480,79.1,106.0,9.3,-99999.0,'1111122,1111122,1199999999' 
ADCP,ioos:station:wmo:42362:1,2013-10-02T21:53:00Z,27.7950,-90.6480,79.1,117.0,8.9,-99999.0,'1111122,1111122,1199999999' 
ADCP,ioos:station:wmo:42362:1,2013-10-02T22:33:00Z,27.7950,-90.6480,79.1,148.0,7.2,-99999.0,'1111122,1111122,1199999999' 
ADCP,ioos:station:wmo:42362:1,2013-10-02T23:13:00Z,27.7950,-90.6480,79.1,159.0,8.2,-99999.0,'1111122,1111122,1199999999' 
ADCP,ioos:station:wmo:42362:1,2013-10-02T23:33:00Z,27.7950,-90.6480,79.1,169.0,10.7,-99999.0,'1111122,1111122,1199999999' 
ADCP,ioos:station:wmo:42362:1,2013-10-02T23:53:00Z,27.7950,-90.6480,79.1,152.0,10.8,-99999.0,'1111122,1111122,1199999999' 
ADCP,ioos:station:wmo:42362:1,2013-10-03T01:13:00Z,27.7950,-90.6480,79.1,125.0,12.7,-99999.0,'1111122,1111122,1199999999' 
ADCP,ioos:station:wmo:42362:1,2013-10-03T01:33:00Z,27.7950,-90.6480,79.1,138.0,12.5,-99999.0,'1111122,1111122,1199999999' 
ADCP,ioos:station:wmo:42362:1,2013-10-03T02:33:00Z,27.7950,-90.6480,79.1,114.0,13.3,-99999.0,'1111122,1111122,1199999999' 
ADCP,ioos:station:wmo:42362:1,2013-10-03T03:13:00Z,27.7950,-90.6480,79.1,120.0,14.9,-99999.0,'1111122,1111122,1199999999' 
ADCP,ioos:station:wmo:42362:1,2013-10-03T03:33:00Z,27.7950,-90.6480,79.1,123.0,14.9,-99999.0,'1111122,1111122,1199999999' 
ADCP,ioos:station:wmo:42362:1,2013-10-03T03:53:00Z,27.7950,-90.6480,79.1,119.0,17.2,-99999.0,'1111122,1111122,1199999999' 
ADCP,ioos:station:wmo:42362:1,2013-10-03T04:33:00Z,27.7950,-90.6480,79.1,125.0,15.2,-99999.0,'1111122,1111122,1199999999' 
ADCP,ioos:station:wmo:42362:1,2013-10-03T04:53:00Z,27.7950,-90.6480,79.1,127.0,16.4,-99999.0,'1111122,1111122,1199999999' 
ADCP,ioos:station:wmo:42362:1,2013-10-03T05:33:00Z,27.7950,-90.6480,79.1,121.0,17.6,-99999.0,'1111122,1111122,1199999999' 
ADCP,ioos:station:wmo:42362:1,2013-10-03T06:13:00Z,27.7950,-90.6480,79.1,117.0,19.1,-99999.0,'1111122,1111122,1199999999' 
ADCP,ioos:station:wmo:42362:1,2013-10-03T06:33:00Z,27.7950,-90.6480,79.1,112.0,19.8,-99999.0,'1111122,1111122,1199999999' 
ADCP,ioos:station:wmo:42362:1,2013-10-03T07:33:00Z,27.7950,-90.6480,79.1,108.0,19.9,-99999.0,'1111122,1111122,1199999999' 
ADCP,ioos:station:wmo:42362:1,2013-10-03T08:13:00Z,27.7950,-90.6480,79.1,112.0,18.0,-99999.0,'1111122,1111122,1199999999' 
ADCP,ioos:station:wmo:42362:1,2013-10-03T08:33:00Z,27.7950,-90.6480,79.1,112.0,18.8,-99999.0,'1111122,1111122,1199999999' 
ADCP,ioos:station:wmo:42362:1,2013-10-03T08:53:00Z,27.7950,-90.6480,79.1,110.0,18.4,-99999.0,'1111122,1111122,1199999999' 
ADCP,ioos:station:wmo:42362:1,2013-10-03T09:33:00Z,27.7950,-90.6480,79.1,112.0,20.5,-99999.0,'1111122,1111122,1199999999' 
ADCP,ioos:station:wmo:42362:1,2013-10-03T10:13:00Z,27.7950,-90.6480,79.1,110.0,17.5,-99999.0,'1111122,1111122,1199999999' 
ADCP,ioos:station:wmo:42362:1,2013-10-03T11:13:00Z,27.7950,-90.6480,79.1,120.0,16.3,-99999.0,'1111122,1111122,1199999999' 
ADCP,ioos:station:wmo:42362:1,2013-10-03T11:33:00Z,27.7950,-90.6480,79.1,112.0,20.8,-99999.0,'1111122,1111122,1199999999' 
ADCP,ioos:station:wmo:42362:1,2013-10-03T12:33:00Z,27.7950,-90.6480,79.1,113.0,17.7,-99999.0,'1111122,1111122,1199999999' 
ADCP,ioos:station:wmo:42362:1,2013-10-03T12:53:00Z,27.7950,-90.6480,79.1,120.0,13.1,-99999.0,'1111122,1111122,1199999999' 
ADCP,ioos:station:wmo:42362:1,2013-10-03T13:13:00Z,27.7950,-90.6480,79.1,92.0,12.8,-99999.0,'1111122,1111122,1199999999' 
ADCP,ioos:station:wmo:42362:1,2013-10-03T13:43:00Z,27.7950,-90.6480,79.1,104.0,7.2,-99999.0,'1111122,1111122,1199999999' 
ADCP,ioos:station:wmo:42362:1,2013-10-03T14:33:00Z,27.7950,-90.6480,79.1,122.0,6.5,-99999.0,'1111122,1111122,1199999999' 
ADCP,ioos:station:wmo:42362:1,2013-10-03T15:13:00Z,27.7950,-90.6480,79.1,104.0,5.3,-99999.0,'1111122,1111122,1199999999' 
ADCP,ioos:station:wmo:42362:1,2013-10-03T16:13:00Z,27.7950,-90.6480,79.1,332.0,3.4,-99999.0,'1111122,1111122,1199999999' 
ADCP,ioos:station:wmo:42362:1,2013-10-03T16:33:00Z,27.7950,-90.6480,79.1,45.0,3.3,-99999.0,'1111122,1111122,1199999999' 
ADCP,ioos:station:wmo:42362:1,2013-10-03T17:33:00Z,27.7950,-90.6480,79.1,276.0,3.8,-99999.0,'1111122,1111122,1199999999' 
ADCP,ioos:station:wmo:42362:1,2013-10-03T18:13:00Z,27.7950,-90.6480,79.1,279.0,1.3,-99999.0,'1111122,1111122,1199999999' 
ADCP,ioos:station:wmo:42362:1,2013-10-03T18:33:00Z,27.7950,-90.6480,79.1,273.0,5.5,-99999.0,'1111122,1111122,1199999999' 
ADCP,ioos:station:wmo:42362:1,2013-10-03T19:13:00Z,27.7950,-90.6480,79.1,286.0,1.9,-99999.0,'1111122,1111122,1199999999' 
ADCP,ioos:station:wmo:42362:1,2013-10-03T19:33:00Z,27.7950,-90.6480,79.1,307.0,3.8,-99999.0,'1111122,1111122,1199999999' 
ADCP,ioos:station:wmo:42362:1,2013-10-03T19:53:00Z,27.7950,-90.6480,79.1,304.0,1.1,-99999.0,'1111122,1111122,1199999999' 
ADCP,ioos:station:wmo:42362:1,2013-10-03T21:13:00Z,27.7950,-90.6480,79.1,67.0,4.0,-99999.0,'1111122,1111122,1199999999' 
ADCP,ioos:station:wmo:42362:1,2013-10-03T21:33:00Z,27.7950,-90.6480,79.1,274.0,1.6,-99999.0,'1111122,1111122,1199999999' 
ADCP,ioos:station:wmo:42362:1,2013-10-03T22:13:00Z,27.7950,-90.6480,79.1,94.0,7.5,-99999.0,'1111122,1111122,1199999999' 
ADCP,ioos:station:wmo:42362:1,2013-10-03T22:33:00Z,27.7950,-90.6480,79.1,71.0,7.2,-99999.0,'1111122,1111122,1199999999' 
ADCP,ioos:station:wmo:42362:1,2013-10-03T22:53:00Z,27.7950,-90.6480,79.1,81.0,8.1,-99999.0,'1111122,1111122,1199999999' 
ADCP,ioos:station:wmo:42362:1,2013-10-03T23:33:00Z,27.7950,-90.6480,79.1,104.0,7.1,-99999.0,'1111122,1111122,1199999999' 
ADCP,ioos:station:wmo:42362:1,2013-10-04T00:13:00Z,27.7950,-90.6480,79.1,97.0,7.2,-99999.0,'1111122,1111122,1199999999' 
ADCP,ioos:station:wmo:42362:1,2013-10-04T01:13:00Z,27.7950,-90.6480,79.1,97.0,3.8,-99999.0,'1111122,1111122,1199999999' 
ADCP,ioos:station:wmo:42362:1,2013-10-04T02:13:00Z,27.7950,-90.6480,79.1,91.0,5.6,-99999.0,'1111122,1111122,1199999999' 
ADCP,ioos:station:wmo:42362:1,2013-10-04T02:33:00Z,27.7950,-90.6480,79.1,107.0,5.2,-99999.0,'1111122,1111122,1199999999' 
ADCP,ioos:station:wmo:42362:1,2013-10-04T03:13:00Z,27.7950,-90.6480,79.1,105.0,9.1,-99999.0,'1111122,1111122,1199999999' 
ADCP,ioos:station:wmo:42362:1,2013-10-04T03:33:00Z,27.7950,-90.6480,79.1,96.0,7.5,-99999.0,'1111122,1111122,1199999999' 
ADCP,ioos:station:wmo:42362:1,2013-10-04T04:13:00Z,27.7950,-90.6480,79.1,111.0,8.8,-99999.0,'1111122,1111122,1199999999' 
ADCP,ioos:station:wmo:42362:1,2013-10-04T04:33:00Z,27.7950,-90.6480,79.1,109.0,10.1,-99999.0,'1111122,1111122,1199999999' 
ADCP,ioos:station:wmo:42362:1,2013-10-04T04:53:00Z,27.7950,-90.6480,79.1,99.0,12.1,-99999.0,'1111122,1111122,1199999999' 
ADCP,ioos:station:wmo:42362:1,2013-10-04T06:13:00Z,27.7950,-90.6480,79.1,93.0,19.7,-99999.0,'1111122,1111122,1199999999' 
ADCP,ioos:station:wmo:42362:1,2013-10-04T06:53:00Z,27.7950,-90.6480,79.1,87.0,21.3,-99999.0,'1111122,1111122,1199999999' 
ADCP,ioos:station:wmo:42362:1,2013-10-04T08:33:00Z,27.7950,-90.6480,79.1,102.0,23.1,-99999.0,'1111122,1111122,1199999999' 
ADCP,ioos:station:wmo:42362:1,2013-10-04T09:13:00Z,27.7950,-90.6480,79.1,112.0,20.4,-99999.0,'1111122,1111122,1199999999' 
ADCP,ioos:station:wmo:42362:1,2013-10-04T09:33:00Z,27.7950,-90.6480,79.1,104.0,23.3,-99999.0,'1111122,1111122,1199999999' 
ADCP,ioos:station:wmo:42362:1,2013-10-04T10:13:00Z,27.7950,-90.6480,79.1,110.0,23.3,-99999.0,'1111122,1111122,1199999999' 
ADCP,ioos:station:wmo:42362:1,2013-10-04T10:33:00Z,27.7950,-90.6480,79.1,115.0,16.1,-99999.0,'1111122,1111122,1199999999' 
ADCP,ioos:station:wmo:42362:1,2013-10-04T11:13:00Z,27.7950,-90.6480,79.1,107.0,22.1,-99999.0,'1111122,1111122,1199999999' 
ADCP,ioos:station:wmo:42362:1,2013-10-04T11:53:00Z,27.7950,-90.6480,79.1,104.0,17.0,-99999.0,'1111122,1111122,1199999999' 
ADCP,ioos:station:wmo:42362:1,2013-10-04T12:33:00Z,27.7950,-90.6480,79.1,117.0,17.4,-99999.0,'1111122,1111122,1199999999' 
ADCP,ioos:station:wmo:42362:1,2013-10-04T13:33:00Z,27.7950,-90.6480,79.1,109.0,12.9,-99999.0,'1111122,1111122,1199999999' 
ADCP,ioos:station:wmo:42362:1,2013-10-04T14:13:00Z,27.7950,-90.6480,79.1,105.0,17.0,-99999.0,'1111122,1111122,1199999999' 
ADCP,ioos:station:wmo:42362:1,2013-10-04T14:33:00Z,27.7950,-90.6480,79.1,109.0,18.2,-99999.0,'1111122,1111122,1199999999' 
ADCP,ioos:station:wmo:42362:1,2013-10-04T15:13:00Z,27.7950,-90.6480,79.1,115.0,11.0,-99999.0,'1111122,1111122,1199999999' 
ADCP,ioos:station:wmo:42362:1,2013-10-04T15:33:00Z,27.7950,-90.6480,79.1,119.0,10.2,-99999.0,'1111122,1111122,1199999999' 
ADCP,ioos:station:wmo:42362:1,2013-10-04T16:13:00Z,27.7950,-90.6480,79.1,115.0,9.1,-99999.0,'1111122,1111122,1199999999' 
ADCP,ioos:station:wmo:42362:1,2013-10-04T16:53:00Z,27.7950,-90.6480,79.1,106.0,7.1,-99999.0,'1111122,1111122,1199999999' 
ADCP,ioos:station:wmo:42362:1,2013-10-04T17:33:00Z,27.7950,-90.6480,79.1,104.0,6.1,-99999.0,'1111122,1111122,1199999999' 
ADCP,ioos:station:wmo:42362:1,2013-10-04T18:33:00Z,27.7950,-90.6480,79.1,53.0,3.6,-99999.0,'1111122,1111122,1199999999' 
ADCP,ioos:station:wmo:42362:1,2013-10-04T19:13:00Z,27.7950,-90.6480,79.1,98.0,4.4,-99999.0,'1111122,1111122,1199999999' 
ADCP,ioos:station:wmo:42362:1,2013-10-04T19:33:00Z,27.7950,-90.6480,79.1,72.0,4.8,-99999.0,'1111122,1111122,1199999999' 
ADCP,ioos:station:wmo:42362:1,2013-10-04T20:13:00Z,27.7950,-90.6480,79.1,62.0,1.9,-99999.0,'1111122,1111122,1199999999' 
ADCP,ioos:station:wmo:42362:1,2013-10-04T20:33:00Z,27.7950,-90.6480,79.1,99.0,1.8,-99999.0,'1111122,1111122,1199999999' 
ADCP,ioos:station:wmo:42362:1,2013-10-04T21:13:00Z,27.7950,-90.6480,79.1,140.0,2.6,-99999.0,'1111122,1111122,1199999999' 
ADCP,ioos:station:wmo:42362:1,2013-10-04T22:13:00Z,27.7950,-90.6480,79.1,102.0,9.6,-99999.0,'1111122,1111122,1199999999' 
ADCP,ioos:station:wmo:42362:1,2013-10-04T22:33:00Z,27.7950,-90.6480,79.1,112.0,12.3,-99999.0,'1111122,1111122,1199999999' 
ADCP,ioos:station:wmo:42362:1,2013-10-04T23:33:00Z,27.7950,-90.6480,79.1,163.0,6.3,-99999.0,'1111122,1111122,1199999999' 
ADCP,ioos:station:wmo:42362:1,2013-10-04T23:53:00Z,27.7950,-90.6480,79.1,121.0,6.1,-99999.0,'1111122,1111122,1199999999' 
ADCP,ioos:station:wmo:42362:1,2013-10-05T00:13:00Z,27.7950,-90.6480,79.1,166.0,7.2,-99999.0,'1111122,1111122,1199999999' 
ADCP,ioos:station:wmo:42362:1,2013-10-05T00:53:00Z,27.7950,-90.6480,79.1,185.0,4.7,-99999.0,'1111122,1111122,1199999999' 
ADCP,ioos:station:wmo:42362:1,2013-10-05T01:33:00Z,27.7950,-90.6480,79.1,69.0,5.0,-99999.0,'1111122,1111122,1199999999' 
ADCP,ioos:station:wmo:42362:1,2013-10-05T02:13:00Z,27.7950,-90.6480,79.1,270.0,0.9,-99999.0,'1111122,1111122,1199999999' 
ADCP,ioos:station:wmo:42362:1,2013-10-05T03:13:00Z,27.7950,-90.6480,79.1,58.0,1.3,-99999.0,'1111122,1111122,1199999999' 
ADCP,ioos:station:wmo:42362:1,2013-10-05T03:33:00Z,27.7950,-90.6480,79.1,211.0,1.2,-99999.0,'1111122,1111122,1199999999' 
ADCP,ioos:station:wmo:42362:1,2013-10-05T04:13:00Z,27.7950,-90.6480,79.1,141.0,2.6,-99999.0,'1111122,1111122,1199999999' 
ADCP,ioos:station:wmo:42362:1,2013-10-05T04:33:00Z,27.7950,-90.6480,79.1,77.0,7.8,-99999.0,'1111122,1111122,1199999999' 
ADCP,ioos:station:wmo:42362:1,2013-10-05T05:13:00Z,27.7950,-90.6480,79.1,73.0,7.2,-99999.0,'1111122,1111122,1199999999' 
ADCP,ioos:station:wmo:42362:1,2013-10-05T05:33:00Z,27.7950,-90.6480,79.1,74.0,11.4,-99999.0,'1111122,1111122,1199999999' 
ADCP,ioos:station:wmo:42362:1,2013-10-05T05:53:00Z,27.7950,-90.6480,79.1,80.0,15.9,-99999.0,'1111122,1111122,1199999999' 
ADCP,ioos:station:wmo:42362:1,2013-10-05T06:33:00Z,27.7950,-90.6480,79.1,91.0,8.8,-99999.0,'1111122,1111122,1199999999' 
ADCP,ioos:station:wmo:42362:1,2013-10-05T06:53:00Z,27.7950,-90.6480,79.1,89.0,10.7,-99999.0,'1111122,1111122,1199999999' 
ADCP,ioos:station:wmo:42362:1,2013-10-05T08:13:00Z,27.7950,-90.6480,79.1,93.0,9.4,-99999.0,'1111122,1111122,1199999999' 
ADCP,ioos:station:wmo:42362:1,2013-10-05T08:33:00Z,27.7950,-90.6480,79.1,99.0,13.5,-99999.0,'1111122,1111122,1199999999' 
ADCP,ioos:station:wmo:42362:1,2013-10-05T09:33:00Z,27.7950,-90.6480,79.1,110.0,13.2,-99999.0,'1111122,1111122,1199999999' 
ADCP,ioos:station:wmo:42362:1,2013-10-05T10:13:00Z,27.7950,-90.6480,79.1,102.0,15.5,-99999.0,'1111122,1111122,1199999999' 
ADCP,ioos:station:wmo:42362:1,2013-10-05T10:33:00Z,27.7950,-90.6480,79.1,116.0,19.4,-99999.0,'1111122,1111122,1199999999' 
ADCP,ioos:station:wmo:42362:1,2013-10-05T11:13:00Z,27.7950,-90.6480,79.1,115.0,14.0,-99999.0,'1111122,1111122,1199999999' 
ADCP,ioos:station:wmo:42362:1,2013-10-05T11:33:00Z,27.7950,-90.6480,79.1,104.0,18.0,-99999.0,'1111122,1111122,1199999999' 
ADCP,ioos:station:wmo:42362:1,2013-10-05T12:13:00Z,27.7950,-90.6480,79.1,119.0,15.5,-99999.0,'1111122,1111122,1199999999' 
ADCP,ioos:station:wmo:42362:1,2013-10-05T13:13:00Z,27.7950,-90.6480,79.1,113.0,10.4,-99999.0,'1111122,1111122,1199999999' 
ADCP,ioos:station:wmo:42362:1,2013-10-05T13:33:00Z,27.7950,-90.6480,79.1,134.0,8.8,-99999.0,'1111122,1111122,1199999999' 
ADCP,ioos:station:wmo:42362:1,2013-10-05T14:33:00Z,27.7950,-90.6480,79.1,136.0,8.3,-99999.0,'1111122,1111122,1199999999' 
ADCP,ioos:station:wmo:42362:1,2013-10-05T15:13:00Z,27.7950,-90.6480,79.1,148.0,5.3,-99999.0,'1111122,1111122,1199999999' 
ADCP,ioos:station:wmo:42362:1,2013-10-05T15:33:00Z,27.7950,-90.6480,79.1,150.0,7.0,-99999.0,'1111122,1111122,1199999999' 
ADCP,ioos:station:wmo:42362:1,2013-10-05T16:13:00Z,27.7950,-90.6480,79.1,156.0,6.4,-99999.0,'1111122,1111122,1199999999' 
ADCP,ioos:station:wmo:42362:1,2013-10-05T16:33:00Z,27.7950,-90.6480,79.1,165.0,4.9,-99999.0,'1111122,1111122,1199999999' 
ADCP,ioos:station:wmo:42362:1,2013-10-05T16:53:00Z,27.7950,-90.6480,79.1,168.0,4.3,-99999.0,'1111122,1111122,1199999999' 
ADCP,ioos:station:wmo:42362:1,2013-10-05T18:13:00Z,27.7950,-90.6480,79.1,181.0,4.2,-99999.0,'1111122,1111122,1199999999' 
ADCP,ioos:station:wmo:42362:1,2013-10-05T18:33:00Z,27.7950,-90.6480,79.1,212.0,2.8,-99999.0,'1111122,1111122,1199999999' 
ADCP,ioos:station:wmo:42362:1,2013-10-05T19:33:00Z,27.7950,-90.6480,79.1,54.0,1.4,-99999.0,'1111122,1111122,1199999999' 
ADCP,ioos:station:wmo:42362:1,2013-10-05T20:13:00Z,27.7950,-90.6480,79.1,252.0,2.3,-99999.0,'1111122,1111122,1199999999' 
ADCP,ioos:station:wmo:42362:1,2013-10-05T20:33:00Z,27.7950,-90.6480,79.1,208.0,1.5,-99999.0,'1111122,1111122,1199999999' 
ADCP,ioos:station:wmo:42362:1,2013-10-05T21:13:00Z,27.7950,-90.6480,79.1,110.0,7.9,-99999.0,'1111122,1111122,1199999999' 
ADCP,ioos:station:wmo:42362:1,2013-10-05T21:33:00Z,27.7950,-90.6480,79.1,118.0,3.8,-99999.0,'1111122,1111122,1199999999' 
ADCP,ioos:station:wmo:42362:1,2013-10-05T21:53:00Z,27.7950,-90.6480,79.1,184.0,2.9,-99999.0,'1111122,1111122,1199999999' 
ADCP,ioos:station:wmo:42362:1,2013-10-05T22:53:00Z,27.7950,-90.6480,79.1,123.0,3.5,-99999.0,'1111122,1111122,1199999999' 
ADCP,ioos:station:wmo:42362:1,2013-10-05T23:33:00Z,27.7950,-90.6480,79.1,135.0,3.4,-99999.0,'1111122,1111122,1199999999' 
ADCP,ioos:station:wmo:42362:1,2013-10-06T00:33:00Z,27.7950,-90.6480,79.1,116.0,7.8,-99999.0,'1111122,1111122,1199999999' 